Regional Weather Roundup
Issued by NWS

Home | Current Version | Previous Version | Text Only | Print | Product List | Glossary On
Versions: 1 2 3 4 5 6 7 8 9 10 11 12 13 14 15 16 17 18 19 20 21 22 23 24 25 26 27 28 29 30 31 32 33 34 35 36 37 38 39 40 41 42 43 44 45 46 47 48 49 50
000
ASUS45 KABQ 011510
RWRNM
WEATHER ROUNDUP FOR NEW MEXICO
NATIONAL WEATHER SERVICE ALBUQUERQUE NM
800 AM MST SUN MAR 01 2015

NOTE: "FAIR" MEANS FEW OR NO CLOUDS BELOW 12,000 FEET AGL WITH NO
       SIGNIFICANT WEATHER OR OBSTRUCTIONS TO VISION.

      THIS PRODUCT IS RELEASED AS TWO VERSIONS.  ONE VERSION NEAR
      THE TOP OF THE HOUR CONTAINING PRELIMINARY DATA FROM ALBUQUERQUE
      AND OTHER STATIONS.  A FINAL VERSION WITH ADDITIONAL DATA IS
      ISSUED ABOUT 10 MINUTES AFTER THE HOUR.

NMZ501-503-504-510>518-011600-
NORTHWEST PLATEAU/NORTHCENTRAL MOUNTAINS

CITY           SKY/WX    TMP DP  RH WIND       PRES   REMARKS
FARMINGTON     LGT RAIN  34  32  92 E3        30.08R FOG
LOS ALAMOS     LGT RAIN  33  33 100 CALM      30.12R
SANTA FE       LGT RAIN  34  32  92 N9        30.10R FOG     WCI  27
TAOS           CLOUDY    32  28  86 E3        30.12R
ANGEL FIRE     PTSUNNY   32  28  84 W9          N/A  WCI  24

$$
NMZ402-403-502-505>509-011600-
WESTCENTRAL MOUNTAINS/SOUTHWEST MOUNTAINS

CITY           SKY/WX    TMP DP  RH WIND       PRES   REMARKS
GALLUP         CLOUDY    41  38  89 SW14      30.06R
GRANTS         CLOUDY    36  36  99 CALM      30.10R
SILVER CITY    SUNNY     46  37  71 NE3       30.14R

$$
NMZ407-409-411-412-011600-
SOUTHERN DESERTS

CITY           SKY/WX    TMP DP  RH WIND       PRES   REMARKS
LORDSBURG      FAIR      48  36  61 SE5       30.08R
DEMING         SUNNY     46  36  68 CALM      30.11R
LAS CRUCES     SUNNY     51  37  57 W7        30.11S
HOLLOMAN AFB   SUNNY     48  34  58 S7        30.10R
ALAMOGORDO     SUNNY     54  36  50 S6        30.12R
T OR C         SUNNY     52  37  56 S13       30.09R

$$
NMZ519>523-011600-
CENTRAL VALLEYS/CENTRAL HIGHLANDS

CITY           SKY/WX    TMP DP  RH WIND       PRES   REMARKS
ALBUQUERQUE    PTSUNNY   35  32  88 N6        30.11R WCI  30
DOUBLE EAGLE   CLOUDY    34  32  93 CALM      30.10R
MORIARTY ARPT  CLOUDY    37  32  82 CALM      30.12R
CLINES CORNERS MOSUNNY   41  34  76 W22G30    30.09R
BELEN          CLOUDY    35  32  90 NW3       30.12R
SOCORRO          N/A     38  32  80 N5        30.12R WCI  34

$$
NMZ524>526-539-540-011600-
SOUTHCENTRAL MOUNTAINS

CITY           SKY/WX    TMP DP  RH WIND       PRES   REMARKS
RUIDOSO        SUNNY     48  32  53 NE7       30.15R

$$
NMZ527>531-011600-
NORTHEAST HIGHLANDS/NORTHEAST PLAINS

CITY           SKY/WX    TMP DP  RH WIND       PRES   REMARKS
LAS VEGAS      MOSUNNY   35  31  85 SW15      30.07R WCI  25
RATON          FOG       22  20  92 NE7       30.08R VSB<1/4 WCI  13
CLAYTON        CLOUDY    24  21  88 N12       30.14R FOG     WCI  13

$$
NMZ532>537-011600-
EASTCENTRAL PLAINS

CITY           SKY/WX    TMP DP  RH WIND       PRES   REMARKS
TUCUMCARI      CLOUDY    28  25  88 NW5       30.16R WCI  23
CANNON AFB     NOT AVBL
CLOVIS AIRPORT CLOUDY    27  27 100 W7        30.16S VSB 1/2 WCI  19

$$
NMZ028-029-538-011600-
SOUTHEAST PLAINS

CITY           SKY/WX    TMP DP  RH WIND       PRES   REMARKS
ROSWELL        CLOUDY    30  29  96 S7        30.19R FOG     WCI  23
ARTESIA        FOG       30  30 100 S5        30.20R VSB<1/4 WCI  25
CARLSBAD       CLOUDY    32  30  92 SE7       30.19R FOG     WCI  26
HOBBS          FOG       30  30 100 CALM      30.20R VSB 1/4


$$



USA.gov is the U.S. government's official web portal to all federal, state and local government web resources and services.